This demonstration page uses our WeatherBlox Daily Observations layout. Learn more.

39.01783, -85.05884

Hourly Observations for November 9, 2019

Temp ( °F °C ) Dew Point ( °F °C ) Humidity (%) Winds ( mph kmh ) Pressure ( in mb ) Visibility ( mi km ) Precip ( " mm )
12:52 am 00:52 Mostly Clear 27 -2.8 19 -7.2 72 72 Calm 30.3 1026 10 16.09344 0 0
1:52 am 01:52 Mostly Clear 24 -4.4 20 -6.7 84 84 S 5 7 30.27 1025 10 16.09344 0 0
2:52 am 02:52 Mostly Cloudy 27 -2.8 19 -7.2 72 72 SSW 5 7 30.24 1024 10 16.09344 0 0
3:52 am 03:52 Cloudy 27 -2.8 19 -7.2 72 72 SSW 5 7 30.24 1024 10 16.09344 0 0
4:52 am 04:52 Cloudy 27 -2.8 20 -6.7 75 75 SW 3 6 30.24 1024 10 16.09344 0 0
5:52 am 05:52 Cloudy 27 -2.8 21 -6.1 78 78 S 5 7 30.21 1023 10 16.09344 0 0
6:52 am 06:52 Cloudy 27 -2.8 21 -6.1 78 78 Calm 30.24 1024 10 16.09344 0 0
7:52 am 07:52 Cloudy 28 -2.2 21 -6.1 75 75 S 5 7 30.21 1023 10 16.09344 0 0
8:52 am 08:52 Cloudy 30 -1.1 22 -5.6 72 72 SSW 6 9 30.21 1023 10 16.09344 0 0
9:52 am 09:52 Cloudy 32 0 22 -5.6 66 66 S 12 19 30.18 1022 10 16.09344 0 0
10:52 am 10:52 Mostly Cloudy 35 1.7 22 -5.6 59 59 SSW 10 17 30.15 1021 10 16.09344 0 0
11:52 am 11:52 Mostly Cloudy 37 2.8 21 -6.1 52 52 SW 10 17 30.15 1021 10 16.09344 0 0
12:52 pm 12:52 Mostly Cloudy 42 5.6 22 -5.6 45 45 S 12 19 30.09 1019 10 16.09344 0 0
1:52 pm 13:52 Mostly Cloudy 45 7.2 22 -5.6 40 40 SSW 10 17 30.06 1018 10 16.09344 0 0
2:52 pm 14:52 Partly Cloudy 47 8.3 21 -6.1 36 36 SSW 12 19 30.06 1018 10 16.09344 0 0
3:52 pm 15:52 Mostly Cloudy 46 7.8 20 -6.7 35 35 SSW 9 15 30.03 1017 10 16.09344 0 0
4:52 pm 16:52 Mostly Cloudy 45 7.2 21 -6.1 39 39 S 12 19 30.03 1017 10 16.09344 0 0
5:52 pm 17:52 Partly Cloudy 42 5.6 21 -6.1 43 43 S 8 13 30.03 1017 10 16.09344 0 0
6:52 pm 18:52 Partly Cloudy 40 4.4 22 -5.6 49 49 S 9 15 30 1016 10 16.09344 0 0
7:52 pm 19:52 Partly Cloudy 40 4.4 21 -6.1 47 47 SSW 8 13 30.03 1017 10 16.09344 0 0
8:52 pm 20:52 Mostly Cloudy 37 2.8 22 -5.6 54 54 SSW 7 11 30.03 1017 10 16.09344 0 0
9:52 pm 21:52 Mostly Cloudy 37 2.8 23 -5 57 57 S 7 11 30.03 1017 10 16.09344 0 0
10:52 pm 22:52 Mostly Cloudy 41 5 23 -5 49 49 SW 7 11 30.03 1017 10 16.09344 0 0
11:52 pm 23:52 Cloudy 42 5.6 23 -5 47 47 SSW 10 17 30 1016 10 16.09344 0 0

Powered by AerisWeather